Regional Weather Roundup
Issued by NWS

Home | Current Version | Previous Version | Text Only | Print | Product List | Glossary Off
Versions: 1 2 3 4 5 6 7 8 9 10 11 12 13 14 15 16 17 18 19 20 21 22 23 24 25 26 27 28 29 30 31 32 33 34 35 36 37 38 39 40 41 42 43 44 45 46 47 48 49 50

784
ASUS43 KMKX 181500
RWRWI

WISCONSIN REGIONAL WEATHER ROUNDUP
NATIONAL WEATHER SERVICE MILWAUKEE/SULLIVAN WI
1000 AM CDT WED OCT 18 2017

NOTE: "FAIR" INDICATES FEW OR NO CLOUDS BELOW 12,000 FEET WITH NO
SIGNIFICANT WEATHER AND/OR OBSTRUCTIONS TO VISIBILITY.

WIZ001-002-006>008-014>016-023>028-181600-
NORTHWEST WISCONSIN

CITY           SKY/WX    TMP DP  RH WIND       PRES   REMARKS
SUPERIOR ARPT  CLOUDY    60  45  59 S9        29.70F
ASHLAND        SUNNY     60  45  57 S15G22    29.74F
HAYWARD        SUNNY     58  45  62 S12       29.78F
SIREN          SUNNY     57  45  62 S9        29.78R
CUMBERLAND     SUNNY     52  45  76 S14G20    29.81F
RICE LAKE      SUNNY     55  46  71 SE9       29.84F
CHETEK         SUNNY     56  47  74 S12G18    29.85F
LADYSMITH      SUNNY     55  47  72 S10G16    29.88F
EAU CLAIRE     SUNNY     57  47  69 S12       29.86F
MENOMONIE      SUNNY     56  47  71 S7        29.86S
NEW RICHMOND   SUNNY     56  45  67 S10       29.82S
OSCEOLA        SUNNY     55  46  70 S7        29.83S
$$

WIZ003>005-009-010-017-018-181600-
NORTH CENTRAL WISCONSIN

CITY           SKY/WX    TMP DP  RH WIND       PRES   REMARKS
MANITOWISH WTR SUNNY     53  47  79 S10       29.86R
ARBOR VITAE    SUNNY     57  48  73 SW10G16   29.87S
WOODRUFF       SUNNY     57  48  73 SW10G16   29.87S
RHINELANDER    SUNNY     57  46  66 SW12      29.89F
EAGLE RIVER    SUNNY     54  43  67 SW5       29.87F
LAND O LAKES   SUNNY     55  45  68 SW8       29.88S
PHILLIPS       SUNNY     54  46  74 SW12G17   29.87S
TOMAHAWK       SUNNY     53  45  74 S5        29.90F
MEDFORD        SUNNY     54  45  70 S13G18    29.90F
MERRILL        SUNNY     56  46  68 SW8       29.93R
$$

WIZ029-030-035-036-043>047-181600-
CENTRAL WISCONSIN

CITY           SKY/WX    TMP DP  RH WIND       PRES   REMARKS
WAUSAU         SUNNY     55  45  68 SW12      29.92S
MOSINEE        SUNNY     55  46  71 S13       29.94S
MARSHFIELD     SUNNY     56  45  66 SW15      29.92S
STEVENS POINT  SUNNY     54  44  69 S16       29.94F
WAUPACA        SUNNY     57  46  66 S13G18    29.97F
WAUTOMA        SUNNY     57  45  64 S14G21    29.98F
WISC RAPIDS    SUNNY     57  46  66 SW15      29.96S
CAMP DOUGLAS   NOT AVBL
$$

WIZ011>013-019>022-031-037>040-048>050-181600-
NORTHEAST WISCONSIN

CITY           SKY/WX    TMP DP  RH WIND       PRES   REMARKS
ANTIGO         SUNNY     54  46  75 SW10      29.93S
SHAWANO        SUNNY     57  46  66 S6        29.95F
OCONTO         SUNNY     57  46  66 S8G17     29.95F
STURGEON BAY   SUNNY     59  46  62 S15G21    29.97F
GREEN BAY      SUNNY     58  48  69 S17G24    29.97F
MANITOWOC      SUNNY     58  45  62 S15       30.01F
APPLETON       SUNNY     55  43  62 S17       29.97F
CLINTONVILLE   SUNNY     57  45  62 S9        29.95F
OSHKOSH        SUNNY     57  45  64 S16G24    29.98F
$$

WIZ032>034-041-042-053>061-181600-
SOUTHWEST WISCONSIN

CITY           SKY/WX    TMP DP  RH WIND       PRES   REMARKS
LA CROSSE      SUNNY     59  47  64 S13       29.93F
SPARTA         SUNNY     56  46  68 S10G17    29.95S
VIROQUA        SUNNY     54  47  76 S10       29.97S
BOSCOBEL       SUNNY     61  46  57 S9G18     30.00F
PRAIRIE DU CHI SUNNY     57  44  62 S5        29.99F
PLATTEVILLE    SUNNY     55  47  73 S15       30.04F
$$

WIZ056-057-062-063-064-067-068-181600-
SOUTH CENTRAL WISCONSIN

CITY           SKY/WX    TMP DP  RH WIND       PRES   REMARKS
REEDSBURG      SUNNY     55  44  68 S8G17     29.99F
BARABOO/DELLS  SUNNY     55  43  64 S16       29.99F
LONE ROCK      SUNNY     57  48  72 S12       30.01F
MINERAL POINT  NOT AVBL
MADISON        SUNNY     56  43  61 S14G20    30.04F
MIDDLETON      SUNNY     55  44  66 S12       30.05S
WATERTOWN      SUNNY     56  44  64 S10G18    30.06F
MONROE         SUNNY     54  41  62 S17       30.07S
JANESVILLE     SUNNY     59  43  55 S12       30.08F
$$

WIZ051-052-058>065-066-070>072-181600-
SOUTHEAST WISCONSIN

CITY           SKY/WX    TMP DP  RH WIND       PRES   REMARKS
MILWAUKEE      SUNNY     60  43  53 SW12      30.09F
WAUKESHA       SUNNY     55  41  58 S14       30.09F
MILWAUKEE/TIMM SUNNY     59  39  47 S9        30.08F
RACINE         SUNNY     59  43  55 SW13      30.11F
BURLINGTON     SUNNY     56  45  65 S12       30.10F
KENOSHA        SUNNY     59  42  53 S14       30.11F
FOND DU LAC    SUNNY     60  42  51 S15G26    30.01F
SHEBOYGAN      SUNNY     60  47  61 SW14      30.04F
WEST BEND      SUNNY     57  41  54 S9        30.05F
JUNEAU         SUNNY     56  43  62 S9        30.06S
$$

LSZ147-162-181600-
LAKE SUPERIOR

STATION/POSITION TIME  TEMP    WIND        PRES    WAVE
                       AIR SEA DIR/SP/G            HT/PER
                 (UTC) (F)     (DEG/KT/KT) (MB)    (FT/S)
W MID LAKE BUOY  1350   55 53              1006.9R   2/ 4
DEVILS ISLAND    1400   58     190/ 10/ 13 1006.5F
PORT WING        1440          210/ 10/ 21 1006.4
SAXON HARBOR     1440   62     190/ 11/ 20 1006.8F
$$

LMZ867-665-643>646-181600-
LAKE MICHIGAN

STATION/POSITION TIME  TEMP    WIND        PRES    WAVE
                       AIR SEA DIR/SP/G            HT/PER
                 (UTC) (F)     (DEG/KT/KT) (MB)    (FT/S)
S GREEN BAY BUOY 1430   57 58  200/ 17/ 21 1014.5F
N MID LAKE BUOY  1350   59 59  190/ 23/ 27 1015.5F   5/ 6
NORTHPORT PIER   1440   60     180/  8/ 13 1014.2F
KEWAUNEE LAKESHO 1430   56     180/ 15/ 19 1015.3F
SHEBOYGAN LAKESH 1400   54     190/ 13/ 15 1017.6F
PORT WASHINGTON  1440   63     200/  7/ 10 1018.6F
ATWATER BUOY     1309   55 52  200/ 12/ 14 1019.1
MILWAUKEE LAKESH 1430   57     210/ 11/ 12   N/A
S MID LAKE BUOY  1350   59 61  220/ 17/ 21 1020.6R   4/ 6
KENOSHA   LAKESH 1400   55     220/ 12/ 19 1020.0
$$

TC  - TEMPERATURE IN CELSIUS
VSB - VISIBILITY IN STATUTE MILES
WCI - WIND CHILL INDEX
HX  - HEAT INDEX





USA.gov is the U.S. government's official web portal to all federal, state and local government web resources and services.